Weather in Franschhoek

South Africa     33°54′27″S   19°07′02″E
В апреле 2022 года жителям России запретили посещать сайт meteo.paraplan.net по решению Генеральной прокуратуры. Аудитория сайта уменьшилась в 10 раз. Владельцы сайта не видят смысла в поддержке погодного сервера в таких условиях. Сайт будет закрыт в октябре.
temp.,
°C
wind,
m/s
gust,
m/s
humid.,
%
clouds,
%
prec.,
mm/h
press.,
hPa
HPBL,
m
25 september, sun
sun2523:00+10e3395100 0.0 101377
02:00+10e2392100 0.0 101156
05:00+10n1180100 0.0 101010
08:00+12nnw12670 0.0 1011132
11:00+18wnw34440 0.0 10111246
14:00+19nw4535100 0.0 10101925
17:00+15wnw3362100 0.0 1011766
20:00+11n1183100 0.0 101315
26 september, mon
mon2623:00+10e1189100 0.0 101437
02:00+11se1190100 0.1 101286
05:00+11nnw118994 0.1 101363
08:00+10nnw238799 0.2 1015243
11:00+12nnw347871 0.1 1016710
14:00+14nw445994 0.1 10151229
17:00+15nnw22501 0.0 10151248
20:00+9s228714 0.0 101919
27 september, tue
tue2723:00+8e22940 0.0 102022
02:00+8e22925 0.0 101920
05:00+8ne21890 0.0 101911
08:00+12nne11670 0.0 1020116
11:00+18wnw23420 0.0 10201316
14:00+20w34340 0.0 10181568
17:00+17sw32470 0.0 1018586
20:00+10se22850 0.0 102123
28 september, wed
wed2823:00+9e119062 0.0 102112
02:00+9nne118990 0.0 101910
05:00+8n019071 0.0 101911
08:00+11nnw1176100 0.0 1020102
11:00+16wnw3443100 0.0 1020752
14:00+19wnw34345 0.0 10181002
17:00+17w33471 0.0 1018631
20:00+10s218818 0.0 102026
29 september, thu
thu2923:00+9ese32925 0.0 101939
02:00+9ese3394100 0.0 101843
05:00+8ese329481 0.0 101835
08:00+12ese2377100 0.0 1018145
11:00+19sw114499 0.0 1017780
14:00+21wsw324059 0.0 10151274
17:00+18sw225675 0.0 1015552
20:00+11se228690 0.0 101944